Minneapolis Flying Cloud, MN

6:39 PM CST on November 13, 2019 (GMT -0600)
Flying Cloud

Weather History for KFCM - October, 2019

Change the Weather History Date:

Monday, October 21, 2019

  Actual Average Record
Temperature  
Mean Temperature 52 °F -  
Max Temperature 57 °F 54 °F 72 °F (1999)
Min Temperature 46 °F 37 °F 27 °F (2018)
Degree Days  
Heating Degree Days 14    
Growing Degree Days 2 (Base 50)    
Moisture  
Dew Point 45 °F    
Average Humidity 84    
Maximum Humidity 93    
Minimum Humidity 47    
Precipitation  
Precipitation 0.78 in - - ()
Sea Level Pressure  
Sea Level Pressure 29.24 in    
Wind  
Wind Speed 13 mph (ESE)    
Max Wind Speed 21 mph    
Max Gust Speed 31 mph    
Visibility 7 miles    
Events Rain    
Averages and records for this station are not official NWS values.
T = Trace of Precipitation, MM = Missing Value Source: NWS Daily Summary

Daily Weather History Graph

Daily Weather History Graph

Search for Another Location

Airport or City:

Astronomy

Oct. 21, 2019 Rise Set
Actual Time 7:36 AM CDT 6:19 PM CDT
Civil Twilight 7:07 AM CDT 6:49 PM CDT
Nautical Twilight 6:33 AM CDT 7:23 PM CDT
Astronomical Twilight 5:59 AM CDT 7:56 PM CDT
Moon No Moon Rise 3:04 PM CDT (10/21)
Length of Visible Light 11h 41m
Length of Day
10h 42m
Waning Gibbous, 48% of the Moon is Illuminated
Oct 21
Waning Gibbous
Oct 27
New
Nov 4
First Quarter
Nov 12
Full
Nov 19
Last Quarter

Hourly Weather History & Observations

Time (CDT) Temp. Dew Point Humidity Pressure Visibility Wind Dir Wind Speed Gust Speed Precip Events Conditions
12:53 AM 55.9 °F 42.1 °F 60% 29.70 in 10.0 mi ESE 15.0 mph - N/A   Overcast
1:53 AM 57.0 °F 42.1 °F 57% 29.64 in 10.0 mi ESE 19.6 mph 28.8 mph N/A   Overcast
2:53 AM 55.9 °F 42.1 °F 60% 29.63 in 10.0 mi ESE 16.1 mph 24.2 mph N/A   Overcast
3:53 AM 57.0 °F 37.0 °F 47% 29.59 in 10.0 mi East 17.3 mph 31.1 mph N/A   Overcast
4:53 AM 54.0 °F 41.0 °F 62% 29.54 in 10.0 mi East 15.0 mph 23.0 mph 0.00 in Rain Light Rain
5:53 AM 51.1 °F 43.0 °F 74% 29.50 in 9.0 mi ENE 12.7 mph - 0.02 in Rain Light Rain
6:53 AM 48.9 °F 44.1 °F 83% 29.46 in 6.0 mi ENE 11.5 mph - 0.09 in Rain Light Rain
7:03 AM 48.0 °F 44.1 °F 86% 29.44 in 4.0 mi NE 10.4 mph - 0.03 in Rain Rain
7:49 AM 48.2 °F 44.6 °F 87% 29.37 in 8.0 mi ENE 16.1 mph - 0.09 in Rain Light Rain
7:53 AM 48.0 °F 44.1 °F 86% 29.38 in 7.0 mi ENE 16.1 mph 28.8 mph 0.09 in Rain Light Rain
8:10 AM 48.0 °F 44.1 °F 86% 29.37 in 8.0 mi ENE 12.7 mph 29.9 mph 0.01 in Rain Light Rain
8:41 AM 48.0 °F 44.1 °F 86% 29.36 in 3.0 mi East 16.1 mph 23.0 mph 0.04 in Rain Rain
8:53 AM 48.0 °F 44.1 °F 86% 29.36 in 4.0 mi ENE 17.3 mph 26.5 mph 0.07 in Rain Light Rain
9:53 AM 48.0 °F 45.0 °F 89% 29.31 in 2.5 mi ENE 11.5 mph - 0.11 in Rain Rain
10:08 AM 48.0 °F 45.0 °F 89% 29.30 in 3.0 mi ENE 12.7 mph - 0.04 in Rain Rain
10:53 AM 48.0 °F 45.0 °F 89% 29.26 in 3.0 mi NE 10.4 mph 20.7 mph 0.10 in Rain Light Rain
11:53 AM 48.9 °F 46.0 °F 90% 29.20 in 5.0 mi NE 9.2 mph - 0.08 in Rain Light Rain
12:53 PM 48.9 °F 46.9 °F 93% 29.17 in 2.0 mi East 5.8 mph - 0.06 in Rain Rain
1:00 PM 48.9 °F 46.9 °F 93% 29.16 in 1.8 mi Calm Calm - 0.01 in Rain Light Rain
1:07 PM 50.0 °F 48.0 °F 93% 29.14 in 2.5 mi Variable 4.6 mph - 0.02 in Rain Light Rain
1:14 PM 50.0 °F 46.0 °F 86% 29.10 in 4.0 mi North 10.4 mph - 0.02 in Rain Light Rain
1:36 PM 50.0 °F 46.9 °F 89% 29.01 in 10.0 mi NNW 19.6 mph 28.8 mph 0.03 in   Overcast
1:53 PM 51.1 °F 48.9 °F 92% 29.11 in 10.0 mi SSE 18.4 mph 23.0 mph 0.03 in   Mostly Cloudy
2:03 PM 50.0 °F 46.9 °F 89% 29.11 in 10.0 mi South 16.1 mph 27.6 mph N/A   Mostly Cloudy
2:10 PM 51.1 °F 48.0 °F 89% 29.11 in 10.0 mi South 10.4 mph - N/A   Overcast
2:30 PM 52.0 °F 48.9 °F 89% 29.11 in 10.0 mi WSW 4.6 mph - N/A   Overcast
2:53 PM 52.0 °F 48.0 °F 86% 29.11 in 10.0 mi South 4.6 mph - N/A   Overcast
3:19 PM 53.1 °F 48.0 °F 83% 29.09 in 10.0 mi South 4.6 mph - N/A   Overcast
3:44 PM 52.0 °F 48.0 °F 86% 29.09 in 4.0 mi South 4.6 mph - 0.01 in Rain Light Rain
3:53 PM 52.0 °F 48.0 °F 86% 29.09 in 3.0 mi North - - 0.02 in Rain Rain
4:19 PM 52.0 °F 48.9 °F 89% 29.08 in 1.5 mi SSW 8.1 mph - 0.07 in Rain Light Rain
4:31 PM 52.0 °F 48.0 °F 86% 29.09 in 2.5 mi South 20.7 mph 29.9 mph 0.11 in Rain Light Rain
4:38 PM 51.1 °F 46.9 °F 86% 29.09 in 8.0 mi South 15.0 mph 29.9 mph 0.11 in Rain Light Rain
4:53 PM 51.1 °F 46.9 °F 86% 29.10 in 10.0 mi SSW 12.7 mph - 0.11 in   Overcast
5:53 PM 50.0 °F 46.0 °F 86% 29.11 in 10.0 mi South 11.5 mph - N/A   Overcast
6:53 PM 48.9 °F 44.1 °F 83% 29.11 in 10.0 mi South 11.5 mph - N/A   Overcast
7:09 PM 48.0 °F 45.0 °F 89% 29.10 in 10.0 mi South 12.7 mph - N/A   Overcast
7:53 PM 48.0 °F 45.0 °F 89% 29.12 in 10.0 mi SSE 10.4 mph - N/A   Overcast
8:04 PM 48.0 °F 44.1 °F 86% 29.11 in 10.0 mi SSE 9.2 mph - N/A   Overcast
8:53 PM 48.0 °F 44.1 °F 86% 29.12 in 10.0 mi ESE 5.8 mph - N/A   Overcast
9:53 PM 46.9 °F 44.1 °F 90% 29.13 in 10.0 mi East 5.8 mph - N/A   Overcast
10:53 PM 46.9 °F 43.0 °F 86% 29.16 in 10.0 mi ENE 4.6 mph - N/A   Overcast
11:41 PM 46.9 °F 44.1 °F 90% 29.16 in 10.0 mi NNW 3.5 mph - N/A   Overcast
11:53 PM 46.9 °F 44.1 °F 90% 29.17 in 10.0 mi NW 5.8 mph - N/A   Overcast